TimeMDT,TemperatureF,Dew PointF,Humidity,Sea Level PressureIn,VisibilityMPH,Wind Direction,Wind SpeedMPH,Gust SpeedMPH,PrecipitationIn,Events,Conditions,WindDirDegrees,DateUTC
12:15 AM,41.0,37.4,87,30.15,-9999.0,Calm,Calm,-,N/A,,Unknown,0,2012-10-06 06:15:00
12:35 AM,37.4,35.6,93,30.15,-9999.0,Calm,Calm,-,N/A,,Unknown,0,2012-10-06 06:35:00
12:55 AM,37.4,35.6,93,30.15,-9999.0,Calm,Calm,-,N/A,,Unknown,0,2012-10-06 06:55:00
1:15 AM,39.2,37.4,93,30.15,-9999.0,SE,3.5,-,N/A,,Unknown,130,2012-10-06 07:15:00
1:35 AM,37.4,33.8,87,30.15,-9999.0,SSE,3.5,-,N/A,,Unknown,150,2012-10-06 07:35:00
1:55 AM,39.2,37.4,93,30.16,-9999.0,Calm,Calm,-,N/A,,Unknown,0,2012-10-06 07:55:00
2:15 AM,37.4,35.6,93,30.16,-9999.0,SE,3.5,-,N/A,,Unknown,140,2012-10-06 08:15:00
2:35 AM,37.4,35.6,93,30.16,-9999.0,Calm,Calm,-,N/A,,Unknown,0,2012-10-06 08:35:00
2:55 AM,37.4,35.6,93,30.16,-9999.0,Calm,Calm,-,N/A,,Unknown,0,2012-10-06 08:55:00
3:15 AM,37.4,35.6,93,30.17,-9999.0,Calm,Calm,-,N/A,,Unknown,0,2012-10-06 09:15:00
3:35 AM,37.4,35.6,93,30.17,-9999.0,Calm,Calm,-,N/A,,Unknown,0,2012-10-06 09:35:00
3:55 AM,37.4,33.8,87,30.16,-9999.0,Calm,Calm,-,N/A,,Unknown,0,2012-10-06 09:55:00
4:15 AM,35.6,33.8,93,30.16,-9999.0,Calm,Calm,-,N/A,,Unknown,0,2012-10-06 10:15:00
4:35 AM,37.4,35.6,93,30.15,-9999.0,SSE,3.5,-,N/A,,Unknown,150,2012-10-06 10:35:00
4:55 AM,35.6,33.8,93,30.15,-9999.0,Calm,Calm,-,N/A,,Unknown,0,2012-10-06 10:55:00
5:15 AM,35.6,33.8,93,30.15,-9999.0,Calm,Calm,-,N/A,,Unknown,0,2012-10-06 11:15:00
5:35 AM,33.8,32.0,93,30.15,-9999.0,Calm,Calm,-,N/A,,Unknown,0,2012-10-06 11:35:00
5:55 AM,33.8,32.0,93,30.15,-9999.0,Calm,Calm,-,N/A,,Unknown,0,2012-10-06 11:55:00
6:15 AM,35.6,33.8,93,30.15,-9999.0,Calm,Calm,-,N/A,,Unknown,0,2012-10-06 12:15:00
6:35 AM,33.8,32.0,93,30.15,-9999.0,Calm,Calm,-,N/A,,Unknown,0,2012-10-06 12:35:00
6:55 AM,33.8,32.0,93,30.15,-9999.0,Calm,Calm,-,N/A,,Unknown,0,2012-10-06 12:55:00
7:15 AM,33.8,32.0,93,30.15,-9999.0,SSE,3.5,-,N/A,,Unknown,160,2012-10-06 13:15:00
7:35 AM,33.8,32.0,93,30.15,-9999.0,Calm,Calm,-,N/A,,Unknown,0,2012-10-06 13:35:00
7:55 AM,33.8,32.0,93,30.15,-9999.0,Calm,Calm,-,N/A,,Unknown,0,2012-10-06 13:55:00
8:15 AM,33.8,32.0,93,30.15,-9999.0,South,3.5,-,N/A,,Unknown,170,2012-10-06 14:15:00
8:35 AM,32.0,30.2,93,30.14,-9999.0,SE,3.5,-,N/A,,Unknown,140,2012-10-06 14:35:00
8:55 AM,32.0,32.0,100,30.14,-9999.0,SSE,4.6,-,N/A,,Unknown,150,2012-10-06 14:55:00
9:15 AM,35.6,33.8,93,30.14,-9999.0,SSE,3.5,-,N/A,,Unknown,150,2012-10-06 15:15:00
9:35 AM,37.4,35.6,93,30.14,-9999.0,SSE,3.5,-,N/A,,Unknown,150,2012-10-06 15:35:00
9:55 AM,41.0,37.4,87,30.14,-9999.0,SSE,3.5,-,N/A,,Unknown,160,2012-10-06 15:55:00
10:15 AM,42.8,39.2,87,30.13,-9999.0,Calm,Calm,-,N/A,,Unknown,0,2012-10-06 16:15:00
10:35 AM,46.4,41.0,81,30.13,-9999.0,Calm,Calm,-,N/A,,Clear,0,2012-10-06 16:35:00
10:55 AM,50.0,42.8,76,30.13,-9999.0,Calm,Calm,-,N/A,,Clear,0,2012-10-06 16:55:00
11:15 AM,53.6,41.0,62,30.13,-9999.0,Calm,Calm,-,N/A,,Clear,0,2012-10-06 17:15:00
11:35 AM,59.0,41.0,51,30.12,-9999.0,Calm,Calm,-,N/A,,Clear,0,2012-10-06 17:35:00
11:55 AM,64.4,35.6,34,30.12,-9999.0,Calm,Calm,-,N/A,,Clear,0,2012-10-06 17:55:00
12:15 PM,66.2,32.0,28,30.11,-9999.0,Calm,Calm,-,N/A,,Clear,0,2012-10-06 18:15:00
12:35 PM,69.8,26.6,20,30.11,-9999.0,Calm,Calm,-,N/A,,Clear,0,2012-10-06 18:35:00
12:55 PM,73.4,19.4,13,30.10,-9999.0,ENE,10.4,-,N/A,,Clear,60,2012-10-06 18:55:00
1:15 PM,75.2,17.6,11,30.10,-9999.0,ENE,10.4,19.6,N/A,,Clear,70,2012-10-06 19:15:00
1:35 PM,75.2,17.6,11,30.10,-9999.0,ENE,11.5,18.4,N/A,,Clear,70,2012-10-06 19:35:00
1:55 PM,75.2,17.6,11,30.09,-9999.0,ENE,13.8,-,N/A,,Clear,60,2012-10-06 19:55:00
2:15 PM,75.2,17.6,11,30.09,-9999.0,East,11.5,-,N/A,,Clear,80,2012-10-06 20:15:00
2:35 PM,77.0,17.6,11,30.08,-9999.0,ENE,12.7,21.9,N/A,,Clear,60,2012-10-06 20:35:00
2:55 PM,77.0,17.6,11,30.07,-9999.0,ENE,13.8,17.3,N/A,,Clear,60,2012-10-06 20:55:00
3:15 PM,78.8,17.6,10,30.07,-9999.0,ENE,11.5,17.3,N/A,,Clear,60,2012-10-06 21:15:00
3:35 PM,77.0,15.8,10,30.06,-9999.0,NE,10.4,-,N/A,,Clear,40,2012-10-06 21:35:00
3:55 PM,78.8,15.8,9,30.06,-9999.0,ENE,9.2,18.4,N/A,,Clear,70,2012-10-06 21:55:00
4:15 PM,77.0,19.4,12,30.05,-9999.0,North,4.6,-,N/A,,Clear,350,2012-10-06 22:15:00
4:35 PM,77.0,19.4,12,30.05,-9999.0,North,6.9,-,N/A,,Clear,350,2012-10-06 22:35:00
5:15 PM,73.4,21.2,14,30.04,-9999.0,NNW,6.9,11.5,N/A,,Clear,340,2012-10-06 23:15:00
5:35 PM,73.4,21.2,14,30.04,-9999.0,NNW,9.2,-,N/A,,Clear,330,2012-10-06 23:35:00
5:55 PM,73.4,21.2,14,30.03,-9999.0,North,3.5,-,N/A,,Clear,350,2012-10-06 23:55:00
6:15 PM,77.0,14.0,9,30.03,-9999.0,NE,10.4,-,N/A,,Clear,50,2012-10-07 00:15:00
6:35 PM,75.2,12.2,9,30.02,-9999.0,NE,13.8,18.4,N/A,,Clear,50,2012-10-07 00:35:00
6:55 PM,75.2,12.2,9,30.02,-9999.0,ENE,9.2,-,N/A,,Clear,60,2012-10-07 00:55:00
7:15 PM,73.4,12.2,10,30.02,-9999.0,ENE,6.9,-,N/A,,Clear,70,2012-10-07 01:15:00
7:35 PM,71.6,14.0,11,30.01,-9999.0,Calm,Calm,-,N/A,,Clear,0,2012-10-07 01:35:00
7:55 PM,68.0,14.0,12,30.01,-9999.0,North,4.6,-,N/A,,Clear,10,2012-10-07 01:55:00
8:15 PM,66.2,14.0,13,30.02,-9999.0,NNW,3.5,-,N/A,,Clear,340,2012-10-07 02:15:00
8:35 PM,68.0,14.0,12,30.02,-9999.0,NNW,3.5,-,N/A,,Clear,340,2012-10-07 02:35:00
8:55 PM,66.2,14.0,13,30.02,-9999.0,North,3.5,-,N/A,,Clear,10,2012-10-07 02:55:00
9:15 PM,66.2,14.0,13,30.02,-9999.0,Calm,Calm,-,N/A,,Clear,0,2012-10-07 03:15:00
9:35 PM,66.2,14.0,13,30.02,-9999.0,NNW,3.5,-,N/A,,Clear,340,2012-10-07 03:35:00
10:15 PM,68.0,12.2,12,30.02,-9999.0,Calm,Calm,-,N/A,,Clear,0,2012-10-07 04:15:00
10:35 PM,68.0,12.2,12,30.01,-9999.0,NNE,3.5,-,N/A,,Clear,30,2012-10-07 04:35:00
10:55 PM,66.2,12.2,12,30.01,-9999.0,ENE,3.5,-,N/A,,Clear,70,2012-10-07 04:55:00
11:15 PM,57.2,28.4,33,30.01,-9999.0,East,3.5,-,N/A,,Clear,100,2012-10-07 05:15:00
11:35 PM,48.2,32.0,54,30.01,-9999.0,South,4.6,-,N/A,,Clear,170,2012-10-07 05:35:00
11:55 PM,46.4,32.0,57,30.01,-9999.0,Calm,Calm,-,N/A,,Clear,0,2012-10-07 05:55:00